Content
SEND FEEDBACK

Daily
Averages
Monthly
Summary
Greenland

NARSARSUAQ, GREENLAND


Home > North America > Greenland
Elevation: 85 feet     Latitude: 61 11N     Longitude: 045 25W

WEATHER
 
SELECT A DAY
Number of Records: 47,233;   Date Range: 7/2/96 - 7/19/14
 
SHARE

PRINT THIS DATA

[ ← Previous Day ]
WEATHER ALMANAC - JANUARY 31, 2013
[ Next Day → ]
[ °C ]   °F
Weather ElementAverageHighLow
Temperature27.7 °F35 °F (9:00 pm)21 °F (3:00 am)
Dewpoint7.4 °F10.4 °F (5:50 am)2 °F (12:00 pm)
Humidity38.8 %59 % (5:50 am)17 % (12:00 pm)
Barometer29.53 in29.63 in (3:00 am)29.44 in (2:50 pm)
Wind Speed12.2 mph20.7 mph (4:50 pm)
Weather ElementAverage
Visibility13.9 mi
Wind DirectionENE (75.7 °)

Weather ElementTotal
Precipitation---
Heating Degree Days37 (Base 65)
Averaged from 21 records on January 31, 2013
WEATHER CONDITIONS BREAKOUT
WIND DIRECTION BREAKOUT
WEATHER BY HOUR - JANUARY 31, 2013
[ °C ]   °F
Local TimeTemperatureDewpointHumidityBarometerVisibilityWind DirectionWind SpeedGust SpeedPrecipitationEventsConditions
3:00 AM21.0 °F7.0 °F40 %29.63 in31.0 miEast (80°)4.6 mphOvercast
3:50 AM23.0 °F8.6 °F54 %29.62 in6.2 miENE (60°)3.5 mphMostly Cloudy
4:50 AM23.0 °F8.6 °F54 %29.59 in6.2 miEast (80°)5.8 mphMostly Cloudy
5:50 AM23.0 °F10.4 °F59 %29.59 in6.2 miENE (70°)2.3 mphMostly Cloudy
6:00 AM23.0 °F9.0 °F40 %29.60 in31.0 miNE (50°)3.5 mphOvercast
6:50 AM23.0 °F10.4 °F59 %29.56 in6.2 miEast (80°)8.1 mphMostly Cloudy
7:50 AM24.8 °F10.4 °F54 %29.56 in6.2 miEast (90°)5.8 mphMostly Cloudy
8:50 AM26.6 °F8.6 °F47 %29.56 in6.2 miEast (80°)8.1 mphMostly Cloudy
9:00 AM27.0 °F4.0 °F24 %29.58 in25.0 miEast (80°)6.9 mphMostly Cloudy
9:50 AM24.8 °F8.6 °F50 %29.56 in6.2 miENE (70°)6.9 mphMostly Cloudy
10:50 AM28.4 °F5.0 °F37 %29.53 in6.2 miENE (70°)19.6 mphMostly Cloudy
11:50 AM30.2 °F5.0 °F34 %29.50 in6.2 miEast (80°)18.4 mphMostly Cloudy
12:00 PM30.0 °F2.0 °F17 %29.53 in28.0 miEast (80°)19.6 mphPartly Cloudy
12:50 PM30.2 °F6.8 °F37 %29.50 in6.2 miEast (80°)17.3 mphOvercast
1:50 PM30.2 °F8.6 °F40 %29.47 in6.2 miENE (70°)16.1 mphOvercast
2:50 PM30.2 °F8.6 °F40 %29.44 in6.2 miEast (80°)19.6 mphOvercast
3:00 PM31.0 °F4.0 °F18 %29.46 in31.0 miEast (80°)19.6 mphScattered Clouds
3:50 PM32.0 °F8.6 °F38 %29.44 in6.2 miEast (80°)19.6 mphMostly Cloudy
4:50 PM32.0 °F8.6 °F38 %29.44 in6.2 miEast (80°)20.7 mphMostly Cloudy
6:00 PM33.0 °F5.0 °F17 %29.47 in28.0 miEast (80°)19.6 mphScattered Clouds
9:00 PM35.0 °F8.0 °F18 %29.45 in31.0 miENE (70°)11.5 mphMostly Cloudy
Hourly data recorded from BGBW, located miles away from Narsarsuaq, Greenland







STORIES FROM OUR PARTNERS